[[{"header":{"parameterUnit":"m.s-1","parameterCategory":1,"la1":30.2992,"la2":30.254,"lo1":-89.0895,"lo2":-89.0443,"dy":0.0025,"dx":0.0025,"nx":19,"ny":19,"refTime":"2026-05-06T21:00:00:Z","depth":0,"parameterNumber":2,"parameterNumberName":"U-component_of_WINDS"},"data":[0,0,0,-0.8521,-0.8521,-0.8487,-0.8486,-0.8439,-0.8439,0,0,0,0,0,0,0,0,0,0,0,-0.853,-0.853,-0.8521,-0.8521,-0.8487,-0.8486,-0.8439,-0.8439,0,0,0,0,0,0,0,0,0,0,0,-0.8531,-0.853,-0.853,-0.852,-0.8487,-0.8486,-0.844,-0.8466,0,0,0,0,0,0,0,0,0,0,-0.85,-0.8508,-0.853,-0.853,-0.852,-0.8487,-0.8486,-0.8468,-0.8465,-0.8453,0,-0.8444,0,-0.8441,-0.8436,-0.8435,0,0,0,-0.8521,-0.851,-0.8502,-0.853,-0.852,-0.8487,-0.8502,-0.8466,-0.8463,-0.8449,-0.8443,-0.8442,-0.844,-0.8435,-0.8435,-0.8368,-0.8367,0,0,-0.8523,-0.8524,-0.8504,-0.8499,-0.8505,-0.8503,-0.8501,-0.8464,-0.8457,-0.8443,-0.8441,-0.8439,-0.8435,-0.8435,-0.8368,-0.8367,0,0,0,-0.8528,-0.8525,-0.8518,-0.8501,-0.8495,-0.8502,-0.85,-0.8459,-0.8457,-0.844,-0.8439,-0.8435,-0.8434,-0.8368,-0.8368,-0.835,0,0,0,-0.8529,-0.8528,-0.8518,-0.8519,-0.8496,-0.8477,-0.8496,-0.8459,-0.8455,-0.8439,-0.8435,-0.8434,-0.8369,-0.8368,-0.8351,-0.8341,0,0,0,-0.8533,-0.8528,-0.8523,-0.8519,-0.8504,-0.8478,-0.8473,-0.8458,-0.8454,-0.8435,-0.8433,-0.8369,-0.8368,-0.8352,-0.8343,-0.8322,0,0,0,-0.8537,-0.851,-0.8523,-0.8491,-0.8504,-0.8467,-0.8473,-0.8446,-0.8428,-0.8434,-0.8369,-0.8368,-0.8353,-0.8345,-0.8323,-0.8303,-0.8296,0,0,-0.8503,-0.8505,-0.8486,-0.8497,-0.8457,-0.8472,-0.8429,-0.8413,-0.8411,-0.8382,-0.838,-0.8351,-0.8343,-0.8322,-0.8253,-0.8247,0,0,0,-0.8475,-0.8461,-0.8451,-0.8433,-0.8419,-0.8405,-0.8395,-0.8388,-0.8363,-0.8396,-0.8338,-0.8333,-0.8321,-0.8311,-0.8306,-0.8294,-0.8364,-0.8364,-0.8364,-0.8428,-0.8425,-0.8392,-0.8384,-0.8367,-0.8355,-0.8339,-0.8328,-0.8333,-0.8318,-0.8309,-0.8268,-0.8257,-0.8253,-0.824,-0.8299,-0.8299,-0.8299,-0.8299,-0.8375,-0.8354,-0.8357,-0.8326,-0.8323,-0.8296,-0.8282,-0.8285,-0.8259,-0.8275,-0.8264,-0.8281,-0.8246,-0.8235,-0.8298,-0.8298,-0.8298,-0.8298,-0.8299,-0.8344,-0.8333,-0.8324,-0.8295,-0.8273,-0.8266,-0.824,-0.8238,-0.8236,-0.8225,-0.8214,-0.8214,-0.8213,-0.822,-0.822,-0.8219,-0.8219,-0.8219,-0.8219,-0.8314,-0.8304,-0.8282,-0.8262,-0.8248,-0.823,-0.8215,-0.8201,-0.8185,-0.8185,-0.8185,-0.8189,-0.8243,-0.8256,-0.8217,-0.8217,-0.8218,-0.8218,-0.8218,-0.8261,-0.8272,-0.8238,-0.8224,-0.8198,-0.8174,-0.8171,-0.8142,-0.813,-0.8117,-0.8121,-0.8163,-0.8166,-0.817,-0.818,-0.8124,-0.8124,-0.8124,-0.8124,-0.8233,-0.8234,-0.8197,-0.8174,-0.8152,-0.8144,-0.8103,-0.8089,-0.8077,-0.8068,-0.8076,-0.809,-0.8094,-0.8095,-0.81,-0.811,-0.8037,-0.8037,-0.8037,-0.82,-0.8197,-0.8164,-0.8151,-0.8129,-0.811,-0.807,-0.8042,-0.8031,-0.8033,-0.8061,-0.8065,-0.8087,-0.8095,-0.81,-0.8109,-0.8127,0,0]},{"header":{"parameterUnit":"m.s-1","parameterCategory":1,"la1":30.2992,"la2":30.254,"lo1":-89.0895,"lo2":-89.0443,"dy":0.0025,"dx":0.0025,"nx":19,"ny":19,"refTime":"2026-05-06T21:00:00:Z","depth":0,"parameterNumber":3,"parameterNumberName":"V-component_of_WINDS"},"data":[0,0,0,-1.0894,-1.0895,-1.0916,-1.0917,-1.0934,-1.0934,0,0,0,0,0,0,0,0,0,0,0,-1.0882,-1.0882,-1.0894,-1.0895,-1.0916,-1.0917,-1.0934,-1.0934,0,0,0,0,0,0,0,0,0,0,0,-1.0882,-1.0882,-1.0882,-1.0895,-1.0916,-1.0917,-1.0934,-1.0921,0,0,0,0,0,0,0,0,0,0,-1.0901,-1.0884,-1.0882,-1.0882,-1.0895,-1.0916,-1.0917,-1.092,-1.0922,-1.0919,0,-1.0916,0,-1.0925,-1.0934,-1.0934,0,0,0,-1.0899,-1.0883,-1.0894,-1.0882,-1.0895,-1.0916,-1.0908,-1.0921,-1.0923,-1.0921,-1.0916,-1.0917,-1.0925,-1.0934,-1.0934,-1.0905,-1.0905,0,0,-1.0898,-1.0882,-1.0893,-1.0895,-1.0892,-1.0907,-1.0908,-1.0922,-1.0916,-1.0916,-1.0918,-1.0925,-1.0934,-1.0934,-1.0905,-1.0905,0,0,0,-1.0891,-1.0881,-1.0893,-1.0894,-1.0899,-1.0908,-1.0909,-1.0915,-1.092,-1.0918,-1.0926,-1.0934,-1.0934,-1.0906,-1.0905,-1.0871,0,0,0,-1.0891,-1.0878,-1.0892,-1.0882,-1.0898,-1.0908,-1.0902,-1.0919,-1.0922,-1.0926,-1.0934,-1.0934,-1.0906,-1.0905,-1.0873,-1.0857,0,0,0,-1.0882,-1.0877,-1.0878,-1.0882,-1.0891,-1.0908,-1.0914,-1.092,-1.0926,-1.0934,-1.0934,-1.0906,-1.0906,-1.0875,-1.086,-1.0843,0,0,0,-1.0869,-1.0849,-1.0877,-1.0857,-1.089,-1.0887,-1.0914,-1.0913,-1.0916,-1.0934,-1.0906,-1.0905,-1.0875,-1.0862,-1.0844,-1.0824,-1.0814,0,0,-1.0834,-1.0844,-1.0834,-1.086,-1.0847,-1.0885,-1.0868,-1.0886,-1.0901,-1.0903,-1.0902,-1.0872,-1.086,-1.0843,-1.0772,-1.0765,0,0,0,-1.0817,-1.0809,-1.081,-1.0812,-1.0825,-1.0834,-1.0856,-1.0863,-1.0865,-1.0899,-1.0864,-1.0857,-1.0848,-1.0838,-1.0832,-1.0823,-1.0901,-1.0901,-1.0901,-1.0745,-1.0765,-1.0749,-1.0771,-1.0773,-1.0796,-1.0799,-1.0811,-1.0832,-1.0823,-1.0823,-1.0778,-1.0766,-1.0762,-1.0753,-1.0816,-1.0816,-1.0816,-1.0816,-1.0694,-1.0685,-1.0713,-1.0706,-1.0728,-1.0723,-1.0744,-1.0759,-1.0756,-1.078,-1.0773,-1.0795,-1.0753,-1.0746,-1.0814,-1.0814,-1.0814,-1.0815,-1.0815,-1.0646,-1.0645,-1.0654,-1.0658,-1.0659,-1.0683,-1.0679,-1.07,-1.0719,-1.0712,-1.0712,-1.0713,-1.0714,-1.0712,-1.0711,-1.0711,-1.0711,-1.0711,-1.0711,-1.0592,-1.0603,-1.0597,-1.0609,-1.0612,-1.0619,-1.0642,-1.0645,-1.0654,-1.0669,-1.067,-1.0689,-1.0746,-1.0758,-1.0709,-1.0709,-1.0709,-1.071,-1.071,-1.0528,-1.0545,-1.0536,-1.0539,-1.0554,-1.0552,-1.0579,-1.0585,-1.0591,-1.0588,-1.061,-1.0649,-1.066,-1.0665,-1.0675,-1.0607,-1.0607,-1.0607,-1.0607,-1.0485,-1.0493,-1.0487,-1.049,-1.0496,-1.052,-1.0506,-1.0524,-1.0544,-1.0549,-1.0563,-1.0579,-1.0583,-1.0591,-1.0598,-1.0607,-1.0524,-1.0523,-1.0523,-1.0445,-1.0454,-1.0439,-1.046,-1.0473,-1.0483,-1.0471,-1.0473,-1.05,-1.052,-1.0552,-1.0556,-1.0582,-1.059,-1.0607,-1.0618,-1.0635,0,0]}]]